Location: Hylvaty SDH
(49.9612°N, 16.4057°E)
Time: 20:25:04
(UTC+02:00)

Transit 4A - Pass Details

Date: 10 August 2020
Orbit: 862 x 982 km, 66.8° (Epoch: 28 September)

Event Time Altitude Azimuth Distance (km) Brightness Sun altitude
Rises 09:13:53 0° 176° (S) 3,478 11.1 33.1°
Reaches altitude 10° 09:16:41 10° 165° (SSE) 2,561 10.7 33.5°
Maximum altitude 09:21:34 27° 109° (ESE) 1,668 12.1 34.3°
Drops below altitude 10° 09:26:36 10° 54° (NE) 2,644 10.8 35.0°
Sets 09:29:31 0° 43° (NE) 3,613 11.2 35.5°
